This is the latest recevied weather packets stored in our database for station/object KC0SIQ-13. If no packets are shown the sender has not sent any weather packets the latest 10 day(s).
| Time | Temp. | Humidity | Pressure | Rain* | Wind** | Luminosity | Snow |
|---|---|---|---|---|---|---|---|
| 1778083792 | 1.67° C | 95% | 1018.4 hPa | 1.27 mm | - | 102 W/m² | - |
| 1778083490 | 2.22° C | 96% | 1018.4 hPa | 1.78 mm | - | 83 W/m² | - |
| 1778083187 | 1.67° C | 96% | 1018.3 hPa | 1.78 mm | - | 72 W/m² | - |
| 1778082884 | 1.67° C | 96% | 1018 hPa | 1.27 mm | - | 75 W/m² | - |
| 1778081771 | 1.67° C | 99% | 1018.2 hPa | 1.78 mm | - | 75 W/m² | - |
| 1778081468 | 1.11° C | 99% | 1018 hPa | 1.78 mm | - | 74 W/m² | - |
| 1778081165 | 0° C | 99% | 1018.1 hPa | 1.78 mm | - | 64 W/m² | - |
| 1778080863 | 0.56° C | 99% | 1018.2 hPa | 0 mm | - | 61 W/m² | - |
| 1778080561 | 0.56° C | 99% | 1018 hPa | 1.27 mm | - | 66 W/m² | - |
| 1778080258 | 0.56° C | 99% | 1018.1 hPa | 1.27 mm | - | 60 W/m² | - |
| 1778079954 | 0° C | 99% | 1018.2 hPa | 0 mm | - | 60 W/m² | - |
| 1778079651 | 0.56° C | 99% | 1018.1 hPa | 0 mm | - | 54 W/m² | - |
| 1778079348 | 0° C | 99% | 1017.7 hPa | 0 mm | - | 49 W/m² | - |
| 1778079045 | 0° C | 99% | 1017.8 hPa | 1.78 mm | - | 48 W/m² | - |
| 1778078742 | 0° C | 99% | 1018.2 hPa | 1.78 mm | - | 46 W/m² | - |
| 1778078439 | 0° C | 99% | 1017.8 hPa | 0 mm | - | 41 W/m² | - |
| 1778078137 | 0° C | 99% | 1018 hPa | 0 mm | - | 38 W/m² | - |
| 1778077835 | 0° C | 99% | 1018.1 hPa | 0 mm | - | 35 W/m² | - |
| 1778077532 | 0° C | 99% | 1018 hPa | 0 mm | - | 33 W/m² | - |
| 1778077231 | 0° C | 99% | 1017.8 hPa | 0 mm | - | 30 W/m² | - |
| 1778076928 | 0° C | 99% | 1017.7 hPa | 0 mm | - | 30 W/m² | - |
| 1778076626 | 0° C | 99% | 1017.8 hPa | 0 mm | - | 27 W/m² | - |
| 1778076323 | 0° C | 99% | 1017.7 hPa | 1.27 mm | - | 23 W/m² | - |
| 1778076021 | 0° C | 99% | 1017.5 hPa | 1.27 mm | - | 20 W/m² | - |
| 1778075717 | 0° C | 99% | 1017.8 hPa | 0 mm | - | 17 W/m² | - |
* Rain latest hour (hover to see other rain measurements)
** Current wind speed in m/s (hover to see current wind gust speed)